Date,TemperatureHighF,TemperatureAvgF,TemperatureLowF,DewpointHighF,DewpointAvgF,DewpointLowF,HumidityHigh,HumidityAvg,HumidityLow,PressureMaxIn,PressureMinIn,WindSpeedMaxMPH,WindSpeedAvgMPH,GustSpeedMaxMPH,PrecipitationSumIn
2012-1-1,57.2,45.0,38.9,20.3,11.9,7.8,34,27,17,0.00,40.00,0,0,0,0.00
2012-1-2,59.2,47.4,40.7,21.3,14.0,7.8,32,27,17,0.00,40.00,0,0,0,0.00
2012-1-3,62.6,49.7,43.2,24.9,19.0,14.7,37,30,21,0.00,40.00,0,0,0,0.00
2012-1-4,61.6,49.7,44.6,26.5,17.7,14.3,38,29,17,0.00,40.00,0,0,0,0.00
2012-1-5,58.9,49.0,43.2,32.2,19.9,14.4,46,32,21,0.00,40.00,0,0,0,0.00
2012-1-6,54.9,46.1,38.7,33.1,26.2,18.2,66,46,36,0.00,40.00,0,0,0,0.00
2012-1-7,47.3,39.3,32.6,32.9,23.5,11.4,66,54,33,0.00,40.00,0,0,0,0.00
2012-1-8,50.9,39.3,30.8,26.3,12.0,0.5,44,34,14,0.00,40.00,0,0,0,0.00
2012-1-9,56.0,43.5,35.5,23.5,15.3,11.0,44,33,18,0.00,40.00,0,0,0,0.00
2012-1-10,54.4,44.4,38.2,19.8,14.7,9.4,39,30,24,0.00,40.00,0,0,0,0.00
2012-1-11,53.8,42.5,36.2,25.4,16.0,11.9,45,35,22,0.00,40.00,0,0,0,0.00
2012-1-12,49.7,39.0,33.5,15.9,10.6,4.6,40,32,20,0.00,40.00,0,0,0,0.00
2012-1-13,51.3,39.3,32.2,10.9,4.9,2.2,30,24,16,0.00,40.00,0,0,0,0.00
2012-1-14,55.4,41.4,33.7,15.9,8.0,3.2,31,26,17,0.00,40.00,0,0,0,0.00
2012-1-15,45.7,38.6,32.4,16.2,6.2,1.4,51,27,16,0.00,40.00,0,0,0,0.00
2012-1-16,32.4,24.9,20.3,24.3,20.1,15.1,90,83,49,0.00,40.00,0,0,0,0.02
2012-1-17,38.9,28.5,18.9,24.0,13.9,2.6,87,56,29,0.00,40.00,0,0,0,0.02
2012-1-18,47.5,38.4,0.0,7.5,3.4,0.0,35,20,11,0.00,40.00,0,0,0,0.00
2012-1-19,50.0,43.2,37.4,29.3,5.5,0.2,56,21,12,0.00,40.00,0,0,0,0.00
2012-1-20,48.8,43.3,38.5,42.2,33.9,27.6,95,70,53,0.00,40.00,0,0,0,0.04
2012-1-21,43.6,31.7,0.0,42.2,29.8,0.0,95,88,87,0.00,40.00,0,0,0,3.76
2012-1-22,43.0,32.6,23.8,29.3,23.2,14.0,90,70,42,0.00,40.00,0,0,0,0.04
2012-1-23,36.5,33.7,31.3,35.0,31.8,29.0,95,93,83,0.00,40.00,0,0,0,1.97
2012-1-24,40.5,33.0,28.8,36.6,31.1,27.3,95,93,83,0.00,40.00,0,0,0,0.10
2012-1-25,54.4,40.4,32.0,39.9,32.9,28.9,90,76,51,0.00,40.00,0,0,0,0.00
2012-1-26,55.4,43.1,37.6,38.9,33.8,29.3,92,72,41,0.00,40.00,0,0,0,0.00
2012-1-27,49.3,39.3,32.9,36.5,30.2,22.8,93,72,42,0.00,40.00,0,0,0,0.00
2012-1-28,50.0,38.0,31.3,22.3,16.6,11.7,66,44,22,0.00,40.00,0,0,0,0.00
2012-1-29,55.1,42.5,34.6,28.4,16.5,12.1,45,36,20,0.00,40.00,0,0,0,0.00
2012-1-30,49.3,42.3,37.4,30.5,19.4,11.7,66,41,27,0.00,40.00,0,0,0,0.00
2012-1-31,52.2,42.4,36.5,38.4,31.4,27.9,81,66,39,0.00,40.00,0,0,0,0.00
2012-2-1,42.3,38.3,34.4,34.4,30.4,27.2,87,73,63,0.00,40.00,0,0,0,0.00
2012-2-2,47.3,35.6,29.5,34.5,26.8,14.0,92,72,51,0.00,40.00,0,0,0,0.00
2012-2-3,45.7,32.8,26.8,14.3,12.3,9.8,54,43,28,0.00,40.00,0,0,0,0.00
2012-2-4,47.5,33.5,26.6,21.7,16.1,10.7,57,49,36,0.00,40.00,0,0,0,0.00
2012-2-5,48.2,34.8,27.7,19.7,17.2,14.9,62,50,32,0.00,40.00,0,0,0,0.00
2012-2-6,43.4,35.5,29.0,20.6,16.3,13.7,54,46,36,0.00,40.00,0,0,0,0.00
2012-2-7,40.0,35.5,31.0,29.5,20.8,14.7,90,57,39,0.00,40.00,0,0,0,0.08
2012-2-8,51.8,37.5,29.9,37.0,30.5,27.4,92,77,53,0.00,40.00,0,0,0,0.02
2012-2-9,58.0,44.9,36.0,32.9,26.2,22.5,71,50,31,0.00,40.00,0,0,0,0.00
2012-2-10,57.8,45.8,39.6,32.4,27.3,21.7,65,49,33,0.00,40.00,0,0,0,0.00
2012-2-11,39.2,35.4,32.0,34.9,32.2,26.5,94,88,63,0.00,40.00,0,0,0,0.00
2012-2-12,34.6,32.6,30.8,32.9,30.6,28.7,95,92,89,0.00,40.00,0,0,0,0.02
2012-2-13,33.3,28.6,25.6,31.0,26.4,23.2,95,91,84,0.00,40.00,0,0,0,0.93
2012-2-14,32.4,27.5,24.5,28.1,24.9,22.2,93,90,82,0.00,40.00,0,0,0,0.02
2012-2-15,31.0,26.4,22.5,25.7,23.7,20.0,94,90,80,0.00,40.00,0,0,0,0.41
2012-2-16,46.6,30.6,20.9,34.4,24.9,18.6,92,81,52,0.00,40.00,0,0,0,0.02
2012-2-17,50.4,36.6,27.5,32.3,24.2,19.2,80,62,38,0.00,40.00,0,0,0,0.10
2012-2-18,44.3,36.5,31.0,30.9,26.8,21.9,89,69,52,0.00,40.00,0,0,0,0.02
2012-2-19,34.0,31.1,27.7,30.5,27.0,21.8,89,84,76,0.00,40.00,0,0,0,0.00
2012-2-20,42.5,32.9,26.6,29.5,25.2,17.4,86,74,54,0.00,40.00,0,0,0,0.00
2012-2-21,48.1,37.5,29.0,33.3,28.0,25.2,86,70,45,0.00,40.00,0,0,0,0.00
2012-2-22,59.6,44.1,37.1,38.4,31.8,28.3,74,63,41,0.00,40.00,0,0,0,0.00
2012-2-23,58.7,44.8,35.6,39.8,32.7,26.5,73,64,38,0.00,40.00,0,0,0,0.00
2012-2-24,59.6,45.5,0.0,32.2,23.4,0.0,71,42,24,0.00,40.00,0,0,0,0.00
2012-2-25,44.3,40.2,33.3,34.7,30.2,23.2,83,68,53,0.00,40.00,0,0,0,0.00
2012-2-26,51.1,37.5,27.7,29.2,21.2,9.2,89,57,23,0.00,40.00,0,0,0,0.00
2012-2-27,37.6,30.0,24.1,26.8,20.5,3.7,92,70,24,0.00,40.00,0,0,0,0.04
2012-2-28,33.5,26.9,23.2,25.1,21.7,18.5,92,81,71,0.00,40.00,0,0,0,0.08
2012-2-29,34.6,30.2,25.6,31.1,25.8,17.1,94,84,63,0.00,40.00,0,0,0,0.12
2012-3-1,30.6,28.7,27.0,29.1,26.5,25.0,95,91,86,0.00,40.00,0,0,0,0.02
2012-3-2,44.8,32.9,24.3,27.7,22.1,16.9,92,68,33,0.00,40.00,0,0,0,0.00
2012-3-3,58.7,41.8,30.4,30.9,20.1,16.8,63,45,20,0.00,40.00,0,0,0,0.00
2012-3-4,61.9,47.5,37.8,34.5,25.1,17.2,55,43,23,0.00,40.00,0,0,0,0.00
2012-3-5,64.8,48.6,40.1,34.8,28.5,21.9,61,47,26,0.00,40.00,0,0,0,0.00
2012-3-6,42.1,32.1,22.3,33.0,24.0,12.6,90,73,55,0.00,40.00,0,0,0,0.19
2012-3-7,40.5,28.5,16.6,23.1,16.7,12.3,84,63,43,0.00,40.00,0,0,0,0.06
2012-3-8,55.4,41.0,30.2,28.0,16.4,12.6,52,39,19,0.00,40.00,0,0,0,0.00
2012-3-9,60.1,45.3,34.2,25.9,17.0,12.8,41,33,16,0.00,40.00,0,0,0,0.00
2012-3-10,57.1,45.6,36.7,28.3,19.9,5.9,43,36,22,0.00,40.00,0,0,0,0.00
2012-3-11,48.2,40.6,35.5,35.1,27.2,15.5,84,60,35,0.00,40.00,0,0,0,0.00
2012-3-12,50.0,40.1,33.3,30.9,27.3,18.7,82,62,31,0.00,40.00,0,0,0,0.00
2012-3-13,47.2,38.0,0.0,33.5,29.8,0.0,84,69,50,0.00,40.00,0,0,0,0.00
2012-3-14,50.6,42.2,37.1,38.8,34.3,30.9,82,74,62,0.00,40.00,0,0,0,0.00
2012-3-15,52.2,44.0,38.2,41.1,37.0,31.7,87,77,66,0.00,40.00,0,0,0,0.00
2012-3-16,46.4,40.9,0.0,40.6,36.8,0.0,92,81,75,0.00,40.00,0,0,0,0.00
2012-3-17,39.8,32.0,23.8,36.0,29.2,21.8,92,89,81,0.00,40.00,0,0,0,1.84
2012-3-18,24.8,22.8,20.9,22.5,20.6,18.9,92,91,88,0.00,40.00,0,0,0,1.58
2012-3-19,31.1,23.8,17.6,25.9,20.5,15.1,92,87,78,0.00,40.00,0,0,0,0.32
2012-3-20,50.0,34.8,21.1,36.9,28.2,18.1,93,79,47,0.00,40.00,0,0,0,0.00
2012-3-21,60.5,42.6,31.7,41.0,33.1,24.3,92,71,43,0.00,40.00,0,0,0,0.00
2012-3-22,58.5,44.4,37.4,37.2,30.0,24.1,80,58,37,0.00,40.00,0,0,0,0.00
2012-3-23,54.9,42.5,36.5,40.3,34.2,27.6,93,75,40,0.00,40.00,0,0,0,0.00
2012-3-24,58.7,43.5,33.5,27.8,22.4,15.5,74,47,23,0.00,40.00,0,0,0,0.00
2012-3-25,40.7,34.8,27.5,34.0,27.5,20.2,93,76,45,0.00,40.00,0,0,0,0.36
2012-3-26,40.3,32.3,27.2,34.9,28.7,22.4,94,87,75,0.00,40.00,0,0,0,0.23
2012-3-27,51.3,38.8,29.2,31.9,26.9,22.9,82,64,39,0.00,40.00,0,0,0,0.02
2012-3-28,47.2,40.2,35.5,38.6,33.6,28.8,86,77,68,0.00,40.00,0,0,0,0.00
2012-3-29,54.5,43.4,37.8,44.1,36.5,27.8,93,77,58,0.00,40.00,0,0,0,0.00
2012-3-30,62.6,45.3,0.0,46.7,37.8,0.0,89,71,51,0.00,40.00,0,0,0,0.00
2012-3-31,51.8,42.2,28.4,38.0,34.2,26.6,94,75,50,0.00,40.00,0,0,0,0.77
2012-4-1,32.4,29.6,27.0,29.5,27.6,25.5,94,92,89,0.00,40.00,0,0,0,1.08
2012-4-2,50.0,36.8,27.7,39.0,31.6,25.9,94,83,47,0.00,40.00,0,0,0,0.02
2012-4-3,56.5,43.1,34.4,38.3,32.6,28.4,89,69,38,0.00,40.00,0,0,0,0.00
2012-4-4,42.1,37.6,31.5,37.1,33.8,29.1,95,86,67,0.00,40.00,0,0,0,0.00
2012-4-5,34.7,30.0,26.1,29.9,21.9,6.6,94,72,43,0.00,40.00,0,0,0,0.00
2012-4-6,47.0,32.5,22.0,23.0,10.6,3.9,63,43,18,0.00,40.00,0,0,0,0.00
2012-4-7,62.3,44.5,31.3,21.3,13.7,4.5,49,32,8,0.00,40.00,0,0,0,0.00
2012-4-8,65.7,50.1,37.1,35.5,19.7,12.4,57,34,13,0.00,40.00,0,0,0,0.00
2012-4-9,67.3,51.1,39.4,27.3,19.1,9.2,55,32,12,0.00,40.00,0,0,0,0.00
2012-4-10,66.1,49.7,39.2,29.4,20.0,13.7,66,34,16,0.00,40.00,0,0,0,0.00
2012-4-11,40.0,34.2,30.4,33.4,30.0,25.5,94,86,57,0.00,40.00,0,0,0,0.69
2012-4-12,38.5,33.2,28.3,32.9,30.0,26.0,93,88,77,0.00,40.00,0,0,0,0.15
2012-4-13,32.8,29.7,25.2,30.7,27.8,23.7,94,93,89,0.00,40.00,0,0,0,2.14
2012-4-14,32.6,26.5,0.0,30.2,24.9,0.0,94,89,90,0.00,40.00,0,0,0,0.97
2012-4-15,50.4,36.5,26.3,38.4,32.4,24.5,95,86,63,0.00,40.00,0,0,0,0.02
2012-4-16,59.2,43.9,31.9,43.9,34.9,28.2,91,74,40,0.00,40.00,0,0,0,0.00
2012-4-17,59.8,46.6,36.0,48.4,40.6,32.8,92,80,60,0.00,40.00,0,0,0,0.00
2012-4-18,54.4,47.8,42.8,47.0,42.9,39.2,90,83,74,0.00,40.00,0,0,0,0.00
2012-4-19,64.4,52.1,43.0,51.8,45.1,38.2,88,78,62,0.00,40.00,0,0,0,0.00
2012-4-20,74.5,59.0,47.9,48.6,43.9,38.6,89,61,33,0.00,40.00,0,0,0,0.00
2012-4-21,77.8,61.6,50.4,53.6,41.2,36.8,67,49,25,0.00,40.00,0,0,0,0.00
2012-4-22,79.6,63.8,52.4,48.9,41.9,35.2,64,47,21,0.00,40.00,0,0,0,0.00
2012-4-23,74.2,60.0,52.0,56.3,47.3,41.4,86,66,32,0.00,40.00,0,0,0,0.00
2012-4-24,65.5,54.5,47.0,51.8,42.8,26.7,89,68,33,0.00,40.00,0,0,0,0.00
2012-4-25,65.5,57.0,49.0,46.7,40.2,30.8,73,54,41,0.00,40.00,0,0,0,0.00
2012-4-26,51.5,43.9,41.4,44.8,41.0,39.0,95,90,69,0.00,40.00,0,0,0,0.51
2012-4-27,59.6,51.0,40.9,43.7,36.4,23.5,79,58,45,0.00,40.00,0,0,0,0.00
2012-4-28,61.2,47.3,36.4,49.4,38.3,28.5,83,71,47,0.00,40.00,0,0,0,0.00
2012-4-29,68.9,54.8,43.2,44.6,36.5,30.9,85,54,25,0.00,40.00,0,0,0,0.00
2012-4-30,65.2,57.5,48.4,46.2,37.8,17.8,67,49,21,0.00,40.00,0,0,0,0.00
2012-5-1,57.6,53.6,48.1,45.6,41.1,37.2,76,63,55,0.00,40.00,0,0,0,0.00
2012-5-2,60.3,51.0,46.4,43.7,36.6,23.0,79,59,38,0.00,40.00,0,0,0,0.00
2012-5-3,54.7,48.7,43.6,41.6,34.4,22.2,75,58,40,0.00,40.00,0,0,0,0.00
2012-5-4,50.0,45.0,40.1,42.8,38.1,30.7,85,77,60,0.00,40.00,0,0,0,0.00
2012-5-5,60.1,48.0,38.0,42.6,34.4,26.0,81,60,36,0.00,40.00,0,0,0,0.00
2012-5-6,65.2,51.5,38.7,39.3,32.1,16.7,76,51,16,0.00,40.00,0,0,0,0.00
2012-5-7,63.9,54.0,43.2,40.1,31.3,23.9,56,43,27,0.00,40.00,0,0,0,0.00
2012-5-8,70.7,56.4,45.0,34.7,25.3,17.9,49,32,17,0.00,40.00,0,0,0,0.00
2012-5-9,74.9,62.5,50.0,36.7,27.4,16.7,43,28,17,0.00,40.00,0,0,0,0.00
2012-5-10,73.4,61.7,54.9,42.3,35.2,28.3,53,38,26,0.00,40.00,0,0,0,0.00
2012-5-11,69.5,58.5,48.6,44.2,36.1,26.7,53,44,32,0.00,40.00,0,0,0,0.00
2012-5-12,76.5,61.6,48.4,45.6,39.2,30.8,66,46,21,0.00,40.00,0,0,0,0.00
2012-5-13,82.8,66.2,51.3,45.3,36.8,24.1,64,39,12,0.00,40.00,0,0,0,0.00
2012-5-14,73.8,59.3,49.7,44.2,35.8,20.5,67,44,24,0.00,40.00,0,0,0,0.00
2012-5-15,61.4,53.3,45.4,44.1,36.9,28.4,65,54,32,0.00,40.00,0,0,0,0.00
2012-5-16,74.5,59.9,47.2,48.0,42.8,34.0,70,54,39,0.00,40.00,0,0,0,0.00
2012-5-17,71.5,60.8,51.1,50.0,40.4,26.5,68,49,27,0.00,40.00,0,0,0,0.00
2012-5-18,57.6,49.8,40.7,42.0,37.3,29.7,74,62,48,0.00,40.00,0,0,0,0.00
2012-5-19,73.3,58.6,44.3,47.0,40.4,33.1,82,55,28,0.00,40.00,0,0,0,0.00
2012-5-20,79.6,64.1,49.1,45.8,38.4,29.3,63,42,17,0.00,40.00,0,0,0,0.00
2012-5-21,74.5,64.0,53.6,48.6,43.0,33.8,58,47,37,0.00,40.00,0,0,0,0.00
2012-5-22,67.3,59.1,52.9,49.1,42.5,34.5,73,55,39,0.00,40.00,0,0,0,0.00
2012-5-23,59.2,51.6,45.0,44.0,39.1,32.6,80,63,52,0.00,40.00,0,0,0,0.00
2012-5-24,63.4,53.2,46.6,42.0,37.3,31.9,70,55,39,0.00,40.00,0,0,0,0.00
2012-5-25,47.9,39.1,31.5,32.6,28.2,23.0,90,66,50,0.00,40.00,0,0,0,0.00
2012-5-26,44.6,36.7,30.4,34.6,31.3,28.4,93,81,65,0.00,40.00,0,0,0,0.00
2012-5-27,59.4,47.7,35.8,42.9,35.2,27.1,82,63,37,0.00,40.00,0,0,0,0.00
2012-5-28,67.5,52.4,40.0,44.1,36.1,23.9,81,56,31,0.00,40.00,0,0,0,0.00
2012-5-29,67.0,57.3,47.5,43.7,38.4,32.5,69,50,37,0.00,40.00,0,0,0,0.00
2012-5-30,72.4,60.8,52.2,48.5,43.6,35.9,65,54,43,0.00,40.00,0,0,0,0.00
2012-5-31,81.5,67.0,52.2,52.8,45.8,35.2,73,49,33,0.00,40.00,0,0,0,0.00
2012-6-1,81.2,69.8,56.2,52.0,42.6,32.1,56,39,24,0.00,40.00,0,0,0,0.00
2012-6-2,73.1,65.9,60.5,49.5,44.3,38.4,59,46,34,0.00,40.00,0,0,0,0.00
2012-6-3,75.6,65.5,57.4,52.1,44.9,39.7,62,48,35,0.00,40.00,0,0,0,0.00
2012-6-4,66.1,58.3,44.6,48.4,44.2,38.3,90,61,45,0.00,40.00,0,0,0,0.00
2012-6-5,46.4,40.3,34.9,38.3,33.4,30.2,90,77,63,0.00,40.00,0,0,0,0.00
2012-6-6,60.1,48.2,37.3,40.1,35.6,30.2,77,63,47,0.00,40.00,0,0,0,0.00
2012-6-7,70.9,56.6,43.0,46.0,40.3,35.5,75,57,36,0.00,40.00,0,0,0,0.00
2012-6-8,66.2,58.1,52.6,46.2,43.0,38.0,71,58,42,0.00,40.00,0,0,0,0.00
2012-6-9,62.5,54.4,48.6,41.1,36.6,29.3,68,52,41,0.00,40.00,0,0,0,0.00
2012-6-10,75.8,59.2,44.3,40.5,33.6,18.0,75,44,12,0.00,40.00,0,0,0,0.00
2012-6-11,77.8,64.3,50.8,42.7,32.2,19.5,49,32,13,0.00,40.00,0,0,0,0.00
2012-6-12,79.6,67.5,55.3,40.1,34.2,28.2,43,30,22,0.00,40.00,0,0,0,0.00
2012-6-13,77.0,66.2,57.4,47.4,40.4,29.9,54,39,30,0.00,40.00,0,0,0,0.00
2012-6-14,79.7,66.2,56.5,51.5,47.4,41.5,67,52,26,0.00,40.00,0,0,0,0.00
2012-6-15,83.5,67.9,55.1,52.1,45.9,34.9,73,49,18,0.00,40.00,0,0,0,0.00
2012-6-16,89.8,72.2,57.6,48.0,41.2,30.3,56,37,13,0.00,40.00,0,0,0,0.00
2012-6-17,88.2,72.8,59.4,40.1,33.1,22.0,41,26,7,0.00,40.00,0,0,0,0.00
2012-6-18,77.2,68.2,61.2,47.6,38.7,28.9,51,35,22,0.00,40.00,0,0,0,0.00
2012-6-19,73.8,65.4,57.4,39.5,36.3,31.9,43,35,26,0.00,40.00,0,0,0,0.00
2012-6-20,84.2,67.0,0.0,47.4,37.9,0.0,45,33,18,0.00,40.00,0,0,0,0.00
2012-6-21,78.7,67.0,58.0,46.3,40.8,35.0,58,40,26,0.00,40.00,0,0,0,0.00
2012-6-22,67.7,59.1,52.4,41.0,35.2,29.8,57,42,27,0.00,40.00,0,0,0,0.00
2012-6-23,68.2,57.7,49.9,46.2,38.6,33.0,69,50,34,0.00,40.00,0,0,0,0.00
2012-6-24,73.4,59.8,47.0,44.8,39.5,29.4,75,50,31,0.00,40.00,0,0,0,0.00
2012-6-25,69.1,58.0,48.8,43.1,36.8,21.2,70,48,18,0.00,40.00,0,0,0,0.00
2012-6-26,68.8,55.9,46.4,45.6,42.3,39.0,76,62,42,0.00,40.00,0,0,0,0.00
2012-6-27,76.0,61.5,45.9,48.0,40.5,33.2,72,48,31,0.00,40.00,0,0,0,0.00
2012-6-28,78.1,66.2,52.6,44.1,38.7,32.2,55,38,23,0.00,40.00,0,0,0,0.00
2012-6-29,73.1,64.1,57.6,47.3,43.3,38.1,63,48,35,0.00,40.00,0,0,0,0.00
2012-6-30,69.5,62.0,56.3,48.7,45.4,41.1,62,55,46,0.00,40.00,0,0,0,0.00
2012-7-1,69.7,61.9,56.0,54.6,49.7,43.4,79,65,52,0.00,40.00,0,0,0,0.00
2012-7-2,76.1,64.6,54.7,55.0,51.6,48.3,80,64,46,0.00,40.00,0,0,0,0.00
2012-7-3,77.4,65.8,57.1,53.4,50.1,44.9,76,58,41,0.00,40.00,0,0,0,0.00
2012-7-4,80.1,65.8,54.5,48.8,45.1,38.0,73,50,23,0.00,40.00,0,0,0,0.00
2012-7-5,79.4,67.2,56.2,48.4,44.2,38.7,64,45,25,0.00,40.00,0,0,0,0.00
2012-7-6,82.1,65.9,0.0,48.7,40.5,0.0,58,39,21,0.00,40.00,0,0,0,0.00
2012-7-7,86.8,70.7,56.9,48.9,39.8,32.0,54,35,15,0.00,40.00,0,0,0,0.00
2012-7-8,85.7,71.3,59.0,46.5,38.8,33.2,45,32,16,0.00,40.00,0,0,0,0.00
2012-7-9,87.5,74.8,59.9,45.9,39.7,30.8,42,29,19,0.00,40.00,0,0,0,0.00
2012-7-10,89.3,76.0,63.0,52.5,45.1,38.9,48,34,25,0.00,40.00,0,0,0,0.00
2012-7-11,89.3,78.1,66.4,52.8,44.3,36.8,41,31,24,0.00,40.00,0,0,0,0.00
2012-7-12,81.0,74.9,70.6,54.7,46.8,40.0,51,37,30,0.00,40.00,0,0,0,0.00
2012-7-13,82.1,73.6,66.2,54.4,48.4,38.3,54,41,33,0.00,40.00,0,0,0,0.00
2012-7-14,81.4,70.3,59.9,47.4,40.9,33.7,56,36,24,0.00,40.00,0,0,0,0.00
2012-7-15,83.3,68.6,55.8,44.6,34.4,22.7,44,31,11,0.00,40.00,0,0,0,0.00
2012-7-16,78.3,64.9,55.1,40.5,36.8,30.4,50,37,19,0.00,40.00,0,0,0,0.00
2012-7-17,72.7,60.9,51.8,47.2,40.8,34.9,63,48,37,0.00,40.00,0,0,0,0.00
2012-7-18,77.0,62.9,50.8,45.1,37.7,24.0,60,42,16,0.00,40.00,0,0,0,0.00
2012-7-19,79.0,66.6,59.4,49.9,39.3,28.5,51,37,29,0.00,40.00,0,0,0,0.00
2012-7-20,85.7,69.7,56.5,53.0,45.5,40.0,57,44,22,0.00,40.00,0,0,0,0.00
2012-7-21,85.5,73.0,61.0,52.8,45.9,37.0,51,39,25,0.00,40.00,0,0,0,0.00
2012-7-22,84.1,74.3,64.4,54.2,50.1,45.7,53,43,34,0.00,40.00,0,0,0,0.00
2012-7-23,84.1,73.3,65.3,53.2,48.2,41.3,60,42,28,0.00,40.00,0,0,0,0.00
2012-7-24,82.6,70.3,59.4,43.6,36.6,32.9,48,31,18,0.00,40.00,0,0,0,0.00
2012-7-25,83.2,68.1,54.7,42.8,33.0,25.3,40,28,16,0.00,40.00,0,0,0,0.00
2012-7-26,79.4,67.8,55.8,43.0,35.4,24.2,39,31,19,0.00,40.00,0,0,0,0.00
2012-7-27,79.7,67.1,55.4,46.3,40.2,30.2,50,38,25,0.00,40.00,0,0,0,0.00
2012-7-28,77.9,66.2,56.7,45.4,41.4,34.1,51,41,29,0.00,40.00,0,0,0,0.00
2012-7-29,85.3,68.5,53.8,47.4,40.9,23.7,60,40,11,0.00,40.00,0,0,0,0.00
2012-7-30,88.7,68.9,0.0,45.8,37.3,0.0,43,30,19,0.00,40.00,0,0,0,0.00
2012-7-31,82.6,72.5,60.1,45.9,41.5,31.1,51,34,24,0.00,40.00,0,0,0,0.00
2012-8-1,82.4,72.9,63.7,43.2,39.4,34.7,45,31,22,0.00,40.00,0,0,0,0.00
2012-8-2,84.1,74.4,65.3,40.9,35.2,16.9,32,25,13,0.00,40.00,0,0,0,0.00
2012-8-3,87.1,74.9,64.8,41.5,34.4,15.2,32,24,12,0.00,40.00,0,0,0,0.00
2012-8-4,83.5,71.1,60.8,52.6,45.6,39.4,74,42,29,0.00,40.00,0,0,0,0.02
2012-8-5,83.2,71.4,61.9,50.4,45.8,42.1,49,41,28,0.00,40.00,0,0,0,0.00
2012-8-6,85.5,72.0,61.9,53.0,47.1,42.0,56,43,22,0.00,40.00,0,0,0,0.00
2012-8-7,88.2,69.1,0.0,51.5,41.5,0.0,47,35,21,0.00,40.00,0,0,0,0.00
2012-8-8,90.4,75.4,63.7,49.7,44.6,41.6,48,35,22,0.00,40.00,0,0,0,0.00
2012-8-9,95.0,77.8,66.2,48.7,45.0,41.1,43,33,20,0.00,40.00,0,0,0,0.00
2012-8-10,90.0,79.0,68.2,49.1,46.1,43.6,42,32,24,0.00,40.00,0,0,0,0.00
2012-8-11,92.2,78.6,68.0,51.0,47.3,43.7,44,34,19,0.00,40.00,0,0,0,0.00
2012-8-12,87.5,77.9,70.7,52.9,49.3,47.1,47,37,29,0.00,40.00,0,0,0,0.00
2012-8-13,89.3,75.2,66.6,51.9,49.1,43.5,53,41,24,0.00,40.00,0,0,0,0.00
2012-8-14,86.2,72.1,64.3,58.6,50.9,47.4,78,49,29,0.00,40.00,0,0,0,0.15
2012-8-15,84.8,72.2,61.4,54.1,49.4,43.3,65,47,25,0.00,40.00,0,0,0,0.12
2012-8-16,85.7,72.8,62.3,50.8,46.9,42.0,58,41,26,0.00,40.00,0,0,0,0.00
2012-8-17,81.7,71.7,62.3,52.8,47.0,42.4,53,42,31,0.00,40.00,0,0,0,0.00
2012-8-18,81.5,72.2,66.2,50.4,45.3,41.1,47,39,28,0.00,40.00,0,0,0,0.00
2012-8-19,82.4,71.9,63.5,49.5,46.3,43.5,53,41,29,0.00,40.00,0,0,0,0.00
2012-8-20,86.0,72.5,61.9,50.2,46.7,43.5,56,41,26,0.00,40.00,0,0,0,0.00
2012-8-21,80.3,71.4,64.8,44.6,39.4,34.9,42,32,26,0.00,40.00,0,0,0,0.00
2012-8-22,78.3,69.0,62.6,42.2,36.1,29.8,43,31,21,0.00,40.00,0,0,0,0.00
2012-8-23,79.4,68.7,60.5,43.6,41.0,37.2,49,37,28,0.00,40.00,0,0,0,0.00
2012-8-24,83.0,70.7,60.8,45.6,42.3,39.8,47,37,26,0.00,40.00,0,0,0,0.00
2012-8-25,84.4,70.2,60.5,48.1,42.7,39.7,49,38,26,0.00,40.00,0,0,0,0.00
2012-8-26,79.4,67.2,56.5,44.1,40.2,35.1,55,39,24,0.00,40.00,0,0,0,0.00
2012-8-27,82.4,67.5,54.0,37.3,23.0,9.7,41,20,7,0.00,40.00,0,0,0,0.00
2012-8-28,84.2,70.3,58.9,47.0,34.3,21.3,43,28,17,0.00,40.00,0,0,0,0.00
2012-8-29,82.1,70.6,62.3,47.7,41.5,36.9,44,35,25,0.00,40.00,0,0,0,0.00
2012-8-30,83.2,70.9,62.3,45.4,41.0,36.1,45,35,26,0.00,40.00,0,0,0,0.00
2012-8-31,80.3,67.3,60.1,40.6,36.7,34.6,41,33,20,0.00,40.00,0,0,0,0.00
2012-9-1,74.2,62.6,53.3,41.0,35.1,29.5,43,36,28,0.00,40.00,0,0,0,0.00
2012-9-2,61.6,54.5,51.8,32.0,27.5,25.4,41,35,31,0.00,40.00,0,0,0,0.00
2012-9-3,85.0,75.8,67.0,39.2,33.1,25.3,32,22,13,0.00,40.00,0,0,0,0.00
2012-9-4,84.4,70.5,59.9,46.8,35.7,24.3,58,29,22,0.00,40.00,0,0,0,0.00
2012-9-5,73.4,66.9,61.9,51.2,42.5,36.3,55,42,29,0.00,40.00,0,0,0,0.00
2012-9-6,74.3,66.0,60.7,50.2,46.3,38.8,59,49,39,0.00,40.00,0,0,0,0.00
2012-9-7,78.5,67.8,59.6,51.5,48.3,46.0,62,51,34,0.00,40.00,0,0,0,0.00
2012-9-8,88.4,71.0,59.8,52.2,49.7,47.5,66,49,28,0.00,40.00,0,0,0,0.00
2012-9-9,84.6,71.7,62.6,52.0,48.7,46.1,59,46,30,0.00,40.00,0,0,0,0.00
2012-9-10,80.3,69.2,61.2,51.0,47.2,44.4,59,46,33,0.00,40.00,0,0,0,0.00
2012-9-11,76.3,65.6,59.8,48.8,45.6,41.8,61,49,34,0.00,40.00,0,0,0,0.00
2012-9-12,81.7,66.2,55.1,48.2,43.1,40.0,61,45,23,0.00,40.00,0,0,0,0.00
2012-9-13,86.6,69.4,59.8,42.4,31.4,21.2,52,28,10,0.00,40.00,0,0,0,0.00
2012-9-14,85.5,69.4,58.7,40.2,29.1,22.1,32,23,15,0.00,40.00,0,0,0,0.00
2012-9-15,83.9,69.2,59.0,38.7,33.7,30.9,36,28,16,0.00,40.00,0,0,0,0.00
2012-9-16,82.1,68.0,57.8,39.2,35.8,31.1,43,32,21,0.00,40.00,0,0,0,0.00
2012-9-17,77.9,66.0,57.6,39.6,36.3,33.0,44,34,21,0.00,40.00,0,0,0,0.00
2012-9-18,84.2,67.0,56.2,39.4,34.2,31.2,43,32,17,0.00,40.00,0,0,0,0.00
2012-9-19,84.6,67.2,58.0,39.5,34.3,30.7,37,31,17,0.00,40.00,0,0,0,0.00
2012-9-20,84.8,68.8,58.7,41.2,35.7,33.2,40,31,17,0.00,40.00,0,0,0,0.00
2012-9-21,85.7,67.8,59.4,39.5,36.4,33.2,41,33,16,0.00,40.00,0,0,0,0.00
2012-9-22,77.0,67.1,59.4,41.9,37.5,34.1,40,34,24,0.00,40.00,0,0,0,0.00
2012-9-23,81.5,67.1,58.5,40.4,37.6,36.5,47,35,21,0.00,40.00,0,0,0,0.00
2012-9-24,74.9,63.2,55.1,41.9,34.1,17.3,52,36,21,0.00,40.00,0,0,0,0.00
2012-9-25,75.2,60.5,49.3,36.7,29.0,17.5,38,31,19,0.00,40.00,0,0,0,0.00
2012-9-26,79.4,63.4,52.6,37.3,32.2,28.9,41,32,18,0.00,40.00,0,0,0,0.00
2012-9-27,80.3,65.3,55.1,36.7,33.6,31.0,41,32,20,0.00,40.00,0,0,0,0.00
2012-9-28,80.6,65.8,56.0,40.4,36.2,32.6,45,35,19,0.00,40.00,0,0,0,0.00
2012-9-29,81.4,65.8,56.0,42.0,37.3,33.2,49,37,18,0.00,40.00,0,0,0,0.21
2012-9-30,84.2,68.0,56.5,41.9,35.5,29.6,48,32,15,0.00,40.00,0,0,0,0.08
2012-10-1,86.4,70.2,60.5,39.1,30.5,26.5,34,24,12,0.00,40.00,0,0,0,0.00
2012-10-2,84.6,70.5,60.8,40.2,30.6,25.1,34,24,15,0.00,40.00,0,0,0,0.00
2012-10-3,79.4,68.2,60.8,43.3,31.8,28.4,44,27,18,0.00,40.00,0,0,0,0.00
2012-10-4,68.9,61.7,56.7,38.7,36.6,31.6,46,40,31,0.00,40.00,0,0,0,0.00
2012-10-5,65.0,57.6,53.5,42.5,39.6,32.8,58,51,43,0.00,40.00,0,0,0,0.00
2012-10-6,67.9,56.2,50.4,45.1,35.4,26.4,62,46,36,0.00,40.00,0,0,0,0.00
2012-10-7,72.2,55.4,45.0,45.8,38.0,33.4,71,54,26,0.00,40.00,0,0,0,0.00
2012-10-8,62.5,52.0,45.4,45.0,38.8,25.5,81,62,42,0.00,40.00,0,0,0,0.00
2012-10-9,58.0,50.2,45.2,45.5,38.7,20.4,86,66,35,0.00,40.00,0,0,0,0.00
2012-10-10,62.3,47.7,40.0,41.1,32.3,20.9,81,58,22,0.00,40.00,0,0,0,0.00
2012-10-11,50.2,43.3,39.4,41.2,37.8,35.8,89,81,65,0.00,40.00,0,0,0,0.02
2012-10-12,41.0,34.8,0.0,40.0,33.2,0.0,96,82,89,0.00,40.00,0,0,0,0.47
2012-10-13,65.2,48.3,37.8,52.5,41.8,36.5,96,80,51,0.00,40.00,0,0,0,0.08
2012-10-14,73.4,56.0,47.2,42.7,38.6,35.1,72,55,25,0.00,40.00,0,0,0,0.00
2012-10-15,72.5,55.0,0.0,47.3,38.5,0.0,63,51,35,0.00,40.00,0,0,0,0.00
2012-10-16,73.8,57.9,50.6,49.2,42.5,36.2,69,57,39,0.00,40.00,0,0,0,0.00
2012-10-17,77.2,61.3,51.3,44.0,38.0,33.6,74,46,23,0.00,40.00,0,0,0,0.00
2012-10-18,75.8,59.4,0.0,41.2,32.9,0.0,46,36,16,0.00,40.00,0,0,0,0.00
2012-10-19,71.3,59.5,51.8,50.8,41.9,33.7,71,53,38,0.00,40.00,0,0,0,0.00
2012-10-20,62.5,55.1,50.8,49.7,45.3,38.4,84,70,55,0.00,40.00,0,0,0,0.00
2012-10-21,55.1,49.3,43.0,47.0,41.0,27.0,86,74,53,0.00,40.00,0,0,0,0.00
2012-10-22,49.1,43.7,38.9,39.5,28.5,16.5,93,59,33,0.00,40.00,0,0,0,0.56
2012-10-23,42.5,37.1,32.4,35.9,32.9,28.4,93,85,75,0.00,40.00,0,0,0,0.10
2012-10-24,41.6,37.1,34.0,33.8,30.8,27.6,83,78,68,0.00,40.00,0,0,0,0.00
2012-10-25,51.7,40.7,32.9,36.5,30.8,24.5,80,68,54,0.00,40.00,0,0,0,0.00
2012-10-26,58.7,45.1,36.9,32.4,29.0,25.7,80,56,33,0.00,40.00,0,0,0,0.00
2012-10-27,69.3,52.2,42.1,37.6,30.2,24.8,54,44,23,0.00,40.00,0,0,0,0.00
2012-10-28,69.1,55.1,47.0,33.0,28.6,25.4,48,38,22,0.00,40.00,0,0,0,0.00
2012-10-29,69.5,56.2,49.3,29.7,25.4,22.1,38,31,18,0.00,40.00,0,0,0,0.00
2012-10-30,69.1,55.0,47.3,31.4,25.4,21.0,39,32,22,0.00,40.00,0,0,0,0.00
2012-10-31,67.0,53.8,47.3,31.3,25.6,20.7,44,34,22,0.00,40.00,0,0,0,0.00
2012-11-1,60.7,50.0,45.0,43.0,31.5,21.2,82,51,34,0.00,40.00,0,0,0,0.00
2012-11-2,62.8,47.6,38.9,44.4,37.7,34.3,86,70,36,0.00,40.00,0,0,0,0.00
2012-11-3,66.4,51.6,44.1,41.0,31.0,25.3,65,48,22,0.00,40.00,0,0,0,0.00
2012-11-4,70.2,54.5,45.7,32.2,24.1,18.2,57,34,16,0.00,40.00,0,0,0,0.00
2012-11-5,74.2,54.0,0.0,31.1,22.2,0.0,37,25,16,0.00,40.00,0,0,0,0.00
2012-11-6,73.3,58.7,51.1,31.8,27.8,24.9,38,32,17,0.00,40.00,0,0,0,0.00
2012-11-7,67.3,55.7,49.7,36.9,30.7,25.4,53,39,25,0.00,40.00,0,0,0,0.00
2012-11-8,51.7,43.9,35.5,42.7,35.5,30.8,92,74,52,0.00,40.00,0,0,0,0.00
2012-11-9,34.4,28.8,25.4,32.8,25.1,19.0,94,86,76,0.00,40.00,0,0,0,0.15
2012-11-10,28.8,25.4,22.0,24.0,21.4,18.2,92,85,79,0.00,40.00,0,0,0,0.28
2012-11-11,39.1,27.8,19.3,19.5,16.2,13.9,85,64,37,0.00,40.00,0,0,0,0.04
2012-11-12,50.8,36.2,26.5,27.0,19.5,14.3,61,52,28,0.00,40.00,0,0,0,0.00
2012-11-13,57.6,43.1,35.1,26.3,21.8,18.1,60,45,23,0.00,40.00,0,0,0,0.00
2012-11-14,55.3,44.5,37.4,22.7,18.9,17.2,46,37,23,0.00,40.00,0,0,0,0.00
2012-11-15,52.9,43.3,0.0,34.3,23.4,0.0,76,44,25,0.00,40.00,0,0,0,0.00
2012-11-16,44.3,41.6,38.5,42.1,36.8,29.5,93,83,68,0.00,40.00,0,0,0,0.12
2012-11-17,46.8,41.8,37.4,42.8,39.2,35.3,94,90,83,0.00,40.00,0,0,0,0.17
2012-11-20,51.5,45.0,41.6,37.8,33.2,29.2,74,64,54,0.00,40.00,0,0,0,0.00
2012-11-21,52.0,44.2,39.6,37.8,33.6,26.8,79,67,52,0.00,40.00,0,0,0,0.00
2012-11-22,58.7,45.3,35.8,37.6,31.1,26.5,88,61,32,0.00,40.00,0,0,0,0.00
2012-11-23,63.0,48.5,41.8,25.8,21.4,18.1,50,36,18,0.00,40.00,0,0,0,0.00
2012-11-24,50.2,44.4,43.0,22.1,19.1,16.7,39,36,33,0.00,40.00,0,0,0,0.00
2012-11-25,61.7,51.5,41.4,30.3,22.6,16.4,46,33,22,0.00,40.00,0,0,0,0.00
2012-11-26,58.1,46.7,40.9,20.9,18.8,16.5,42,34,21,0.00,40.00,0,0,0,0.00
2012-11-27,58.0,46.7,40.9,30.1,25.3,20.8,50,44,32,0.00,40.00,0,0,0,0.00
2012-11-28,56.0,45.1,39.8,43.3,33.2,24.9,91,66,37,0.00,40.00,0,0,0,0.15
2012-11-29,45.9,44.4,43.4,43.1,41.7,40.1,93,90,88,0.00,40.00,0,0,0,0.02
2012-11-30,49.7,45.6,42.8,42.4,40.1,34.2,93,82,56,0.00,40.00,0,0,0,0.00
2012-12-1,46.3,43.9,42.1,43.8,41.4,39.3,95,91,81,0.00,40.00,0,0,0,0.06
2012-12-2,45.2,43.2,41.0,44.1,41.9,39.2,96,95,92,0.00,40.00,0,0,0,1.32
2012-12-3,47.3,42.3,36.4,43.3,38.3,25.8,96,86,65,0.00,40.00,0,0,0,0.02
2012-12-4,53.6,44.6,38.5,41.8,29.5,20.2,68,56,38,0.00,40.00,0,0,0,0.00
2012-12-5,52.9,46.0,42.1,34.7,25.8,15.9,70,46,32,0.00,40.00,0,0,0,0.00
2012-12-6,49.3,42.3,37.3,41.5,37.1,34.0,92,82,70,0.00,40.00,0,0,0,0.00
2012-12-7,50.0,40.0,33.8,41.7,33.2,26.8,94,78,49,0.00,40.00,0,0,0,0.00
2012-12-8,53.3,41.9,35.5,33.8,27.4,20.5,79,58,29,0.00,40.00,0,0,0,0.00
2012-12-9,54.2,42.3,36.2,26.3,23.9,22.0,60,49,29,0.00,40.00,0,0,0,0.00
2012-12-10,54.2,42.8,36.4,29.4,25.4,22.6,59,51,34,0.00,40.00,0,0,0,0.00
2012-12-11,53.3,42.8,36.9,29.2,25.1,19.5,63,50,33,0.00,40.00,0,0,0,0.00
2012-12-12,42.1,37.7,33.3,32.0,28.0,21.5,90,70,44,0.00,40.00,0,0,0,0.00
2012-12-13,33.1,30.0,27.2,30.8,27.3,24.9,92,89,85,0.00,40.00,0,0,0,0.00
2012-12-14,27.5,26.1,24.1,25.4,23.8,21.1,93,91,87,0.00,40.00,0,0,0,0.00
2012-12-15,30.4,26.1,22.7,24.8,22.3,19.4,92,86,75,0.00,40.00,0,0,0,0.00
2012-12-16,40.3,33.2,25.4,35.5,29.4,21.8,94,86,67,0.00,40.00,0,0,0,0.00
2012-12-17,43.9,37.7,34.0,39.1,35.3,32.1,94,91,83,0.00,40.00,0,0,0,0.02
2012-12-18,36.4,27.4,20.5,35.0,25.2,16.1,95,91,83,0.00,40.00,0,0,0,0.02
2012-12-19,31.1,22.4,15.8,18.2,14.7,11.0,91,74,48,0.00,40.00,0,0,0,0.00
2012-12-20,38.5,27.0,19.1,19.6,13.9,9.6,72,59,35,0.00,40.00,0,0,0,0.00
2012-12-21,46.8,34.3,27.7,21.8,17.5,11.5,62,51,24,0.00,40.00,0,0,0,0.00
2012-12-22,40.5,33.7,29.3,33.7,25.2,11.0,95,73,44,0.00,40.00,0,0,0,0.02
2012-12-23,35.5,33.4,32.2,34.4,31.8,30.6,96,94,91,0.00,40.00,0,0,0,1.01
2012-12-24,37.6,33.6,27.7,36.5,30.2,23.8,96,88,71,0.00,40.00,0,0,0,1.68
2012-12-25,38.2,32.0,27.4,28.1,24.3,18.6,87,74,48,0.00,40.00,0,0,0,0.02
2012-12-26,31.0,28.6,26.5,29.2,26.7,24.7,95,93,84,0.00,40.00,0,0,0,1.97
2012-12-27,28.8,25.4,20.5,25.8,23.1,18.3,94,91,87,0.00,40.00,0,0,0,0.25
2012-12-28,32.0,24.5,18.2,22.6,19.5,15.7,91,82,65,0.00,40.00,0,0,0,0.02
2012-12-29,29.9,24.9,22.0,24.8,21.4,17.5,91,86,79,0.00,40.00,0,0,0,0.25
2012-12-30,28.8,25.6,21.8,25.5,23.1,19.5,92,90,87,0.00,40.00,0,0,0,0.04
2012-12-31,32.4,25.4,21.1,27.3,22.4,18.3,92,88,75,0.00,40.00,0,0,0,0.02
2013-1-1,34.4,26.5,22.3,23.5,20.0,15.0,90,77,62,0.00,40.00,0,0,0,0.00